This is the latest recevied weather packets stored in our database for station/object W8LMG. If no packets are shown the sender has not sent any weather packets the latest 10 day(s).
| Time | Temp. | Humidity | Pressure | Rain* | Wind** | Luminosity | Snow |
|---|---|---|---|---|---|---|---|
| 1777768334 | 6.11° C | 60% | 1015 hPa | 0 mm | - | 0 W/m² | - |
| 1777768030 | 6.67° C | 60% | 1014.7 hPa | 0 mm | - | 0 W/m² | - |
| 1777767727 | 7.22° C | 55% | 1014.7 hPa | 0 mm | - | 1 W/m² | - |
| 1777767423 | 7.22° C | 52% | 1014.7 hPa | 0 mm | - | 1 W/m² | - |
| 1777767120 | 7.22° C | 51% | 1014.6 hPa | 0 mm | - | 2 W/m² | - |
| 1777766818 | 7.22° C | 54% | 1014.8 hPa | 0 mm | - | 4 W/m² | - |
| 1777766515 | 7.78° C | 49% | 1014.6 hPa | 0 mm | - | 6 W/m² | - |
| 1777766212 | 7.78° C | 49% | 1014.6 hPa | 0 mm | - | 8 W/m² | - |
| 1777765910 | 7.78° C | 50% | 1014.6 hPa | 0 mm | - | 11 W/m² | - |
| 1777765605 | 7.78° C | 49% | 1014.6 hPa | 0 mm | - | 16 W/m² | - |
| 1777765303 | 7.78° C | 49% | 1014.5 hPa | 0 mm | - | 17 W/m² | - |
| 1777764999 | 7.78° C | 47% | 1014.5 hPa | 0 mm | - | 17 W/m² | - |
| 1777764696 | 8.33° C | 48% | 1014.4 hPa | 0 mm | - | 20 W/m² | - |
| 1777764391 | 8.33° C | 46% | 1014.6 hPa | 0 mm | - | 24 W/m² | - |
| 1777764089 | 8.33° C | 45% | 1014.5 hPa | 0 mm | - | 26 W/m² | - |
| 1777763786 | 8.33° C | 49% | 1014.5 hPa | 0 mm | - | 33 W/m² | - |
| 1777763484 | 8.33° C | 44% | 1014.3 hPa | 0 mm | - | 41 W/m² | - |
| 1777763182 | 8.33° C | 45% | 1014.6 hPa | 0 mm | - | 36 W/m² | - |
| 1777762881 | 8.33° C | 45% | 1014.5 hPa | 0 mm | - | 39 W/m² | - |
| 1777762581 | 8.89° C | 44% | 1014.4 hPa | 0 mm | - | 43 W/m² | - |
| 1777762278 | 8.89° C | 46% | 1014.5 hPa | 0 mm | - | 50 W/m² | - |
| 1777761975 | 8.89° C | 46% | 1014.3 hPa | 0 mm | - | 52 W/m² | - |
| 1777761671 | 8.89° C | 46% | 1014.5 hPa | 0 mm | - | 47 W/m² | - |
| 1777761369 | 8.89° C | 48% | 1014.3 hPa | 0 mm | - | 47 W/m² | - |
| 1777761068 | 8.89° C | 46% | 1014.4 hPa | 0 mm | - | 43 W/m² | - |
* Rain latest hour (hover to see other rain measurements)
** Current wind speed in m/s (hover to see current wind gust speed)